Time,TemperatureF,DewpointF,PressureIn,WindDirection,WindDirectionDegrees,WindSpeedMPH,WindSpeedGustMPH,Humidity,HourlyPrecipIn,Conditions,Clouds,dailyrainin,SoftwareType,DateUTC
2013-01-20 00:02:00,24.0,21.0,-100.00,East,95,0.0,2.0,91,-99.99,,,-99.99,,2013-01-20 08:02:00,
2013-01-20 00:12:00,24.0,21.0,-100.00,ESE,110,0.0,1.0,91,-99.99,,,-99.99,,2013-01-20 08:12:00,
2013-01-20 00:22:00,23.0,21.0,-100.00,NE,55,0.0,2.0,91,-99.99,,,-99.99,,2013-01-20 08:22:00,
2013-01-20 00:32:00,23.0,21.0,-100.00,SE,125,0.0,2.0,91,-99.99,,,-99.99,,2013-01-20 08:32:00,
2013-01-20 00:52:00,23.0,21.0,-100.00,SE,125,0.0,1.0,91,-99.99,,,-99.99,,2013-01-20 08:52:00,
2013-01-20 01:02:00,23.0,21.0,-100.00,SE,125,0.0,1.0,91,-99.99,,,-99.99,,2013-01-20 09:02:00,
2013-01-20 01:12:00,23.0,21.0,-100.00,East,95,0.0,1.0,91,-99.99,,,-99.99,,2013-01-20 09:12:00,
2013-01-20 01:22:00,23.0,21.0,-100.00,East,100,0.0,2.0,91,-99.99,,,-99.99,,2013-01-20 09:22:00,
2013-01-20 01:33:00,22.0,20.0,-100.00,ESE,115,0.0,1.0,91,-99.99,,,-99.99,,2013-01-20 09:33:00,
2013-01-20 01:52:00,22.0,20.0,-100.00,SE,135,0.0,1.0,91,-99.99,,,-99.99,,2013-01-20 09:52:00,
2013-01-20 02:02:00,22.0,20.0,-100.00,SE,135,0.0,1.0,91,-99.99,,,-99.99,,2013-01-20 10:02:00,
2013-01-20 02:12:00,22.0,20.0,-100.00,SE,125,0.0,0.0,91,-99.99,,,-99.99,,2013-01-20 10:12:00,
2013-01-20 02:22:00,22.0,20.0,-100.00,ESE,120,0.0,2.0,91,-99.99,,,-99.99,,2013-01-20 10:22:00,
2013-01-20 02:32:00,21.0,19.0,-100.00,ESE,120,0.0,0.0,91,-99.99,,,-99.99,,2013-01-20 10:32:00,
2013-01-20 02:42:00,21.0,19.0,-100.00,ESE,120,0.0,0.0,91,-99.99,,,-99.99,,2013-01-20 10:42:00,
2013-01-20 02:52:00,22.0,20.0,-100.00,ESE,110,1.0,2.0,91,-99.99,,,-99.99,,2013-01-20 10:52:00,
2013-01-20 03:02:00,22.0,20.0,-100.00,ESE,110,1.0,2.0,91,-99.99,,,-99.99,,2013-01-20 11:02:00,
2013-01-20 03:12:00,21.0,19.0,-100.00,ESE,110,0.0,0.0,90,-99.99,,,-99.99,,2013-01-20 11:12:00,
2013-01-20 03:22:00,21.0,18.0,-100.00,East,100,0.0,1.0,90,-99.99,,,-99.99,,2013-01-20 11:22:00,
2013-01-20 03:32:00,21.0,18.0,-100.00,ESE,120,0.0,1.0,90,-99.99,,,-99.99,,2013-01-20 11:32:00,
2013-01-20 03:53:00,20.0,18.0,-100.00,ESE,115,0.0,1.0,90,-99.99,,,-99.99,,2013-01-20 11:53:00,
2013-01-20 04:02:00,20.0,18.0,-100.00,ESE,115,0.0,1.0,90,-99.99,,,-99.99,,2013-01-20 12:02:00,
2013-01-20 04:12:00,20.0,18.0,-100.00,ESE,115,0.0,1.0,90,-99.99,,,-99.99,,2013-01-20 12:12:00,
2013-01-20 04:22:00,20.0,18.0,-100.00,ESE,115,0.0,2.0,90,-99.99,,,-99.99,,2013-01-20 12:22:00,
2013-01-20 04:33:00,20.0,18.0,-100.00,East,100,0.0,1.0,90,-99.99,,,-99.99,,2013-01-20 12:33:00,
2013-01-20 04:52:00,20.0,17.0,-100.00,East,90,0.0,1.0,90,-99.99,,,-99.99,,2013-01-20 12:52:00,
2013-01-20 05:02:00,20.0,17.0,-100.00,East,90,0.0,1.0,90,-99.99,,,-99.99,,2013-01-20 13:02:00,
2013-01-20 05:12:00,20.0,17.0,-100.00,ESE,105,0.0,1.0,90,-99.99,,,-99.99,,2013-01-20 13:12:00,
2013-01-20 05:23:00,20.0,17.0,-100.00,SE,130,0.0,2.0,90,-99.99,,,-99.99,,2013-01-20 13:23:00,
2013-01-20 05:33:00,20.0,17.0,-100.00,East,85,0.0,2.0,90,-99.99,,,-99.99,,2013-01-20 13:33:00,
2013-01-20 05:52:00,19.0,17.0,-100.00,ESE,110,0.0,1.0,90,-99.99,,,-99.99,,2013-01-20 13:52:00,
2013-01-20 06:02:00,19.0,17.0,-100.00,ESE,110,0.0,1.0,90,-99.99,,,-99.99,,2013-01-20 14:02:00,
2013-01-20 06:12:00,19.0,16.0,-100.00,ESE,105,0.0,1.0,89,-99.99,,,-99.99,,2013-01-20 14:12:00,
2013-01-20 06:22:00,19.0,16.0,-100.00,East,80,0.0,1.0,89,-99.99,,,-99.99,,2013-01-20 14:22:00,
2013-01-20 06:32:00,19.0,16.0,-100.00,ESE,110,0.0,1.0,89,-99.99,,,-99.99,,2013-01-20 14:32:00,
2013-01-20 06:42:00,19.0,16.0,-100.00,ESE,110,0.0,1.0,89,-99.99,,,-99.99,,2013-01-20 14:42:00,
2013-01-20 06:52:00,18.0,16.0,-100.00,ESE,105,0.0,2.0,89,-99.99,,,-99.99,,2013-01-20 14:52:00,
2013-01-20 07:02:00,18.0,16.0,-100.00,ESE,105,0.0,2.0,89,-99.99,,,-99.99,,2013-01-20 15:02:00,
2013-01-20 07:12:00,18.0,16.0,-100.00,ESE,115,0.0,2.0,89,-99.99,,,-99.99,,2013-01-20 15:12:00,
2013-01-20 07:22:00,18.0,16.0,-100.00,East,80,0.0,1.0,89,-99.99,,,-99.99,,2013-01-20 15:22:00,
2013-01-20 07:33:00,18.0,15.0,-100.00,East,100,0.0,1.0,89,-99.99,,,-99.99,,2013-01-20 15:33:00,
2013-01-20 07:42:00,18.0,15.0,-100.00,East,100,0.0,1.0,89,-99.99,,,-99.99,,2013-01-20 15:42:00,
2013-01-20 07:52:00,18.0,15.0,-100.00,East,85,0.0,1.0,89,-99.99,,,-99.99,,2013-01-20 15:52:00,
2013-01-20 08:02:00,18.0,15.0,-100.00,East,85,0.0,1.0,89,-99.99,,,-99.99,,2013-01-20 16:02:00,
2013-01-20 08:12:00,18.0,15.0,-100.00,ESE,110,0.0,1.0,89,-99.99,,,-99.99,,2013-01-20 16:12:00,
2013-01-20 08:22:00,17.0,14.0,-100.00,ESE,110,0.0,0.0,89,-99.99,,,-99.99,,2013-01-20 16:22:00,
2013-01-20 08:33:00,17.0,15.0,-100.00,SE,140,0.0,2.0,89,-99.99,,,-99.99,,2013-01-20 16:33:00,
2013-01-20 08:52:00,17.0,14.0,-100.00,East,90,0.0,1.0,88,-99.99,,,-99.99,,2013-01-20 16:52:00,
2013-01-20 09:02:00,17.0,14.0,-100.00,East,90,0.0,1.0,88,-99.99,,,-99.99,,2013-01-20 17:02:00,
2013-01-20 09:12:00,18.0,15.0,-100.00,ESE,105,0.0,1.0,88,-99.99,,,-99.99,,2013-01-20 17:12:00,
2013-01-20 09:22:00,18.0,15.0,-100.00,SE,130,1.0,1.0,88,-99.99,,,-99.99,,2013-01-20 17:22:00,
2013-01-20 09:32:00,19.0,16.0,-100.00,East,90,0.0,2.0,88,-99.99,,,-99.99,,2013-01-20 17:32:00,
2013-01-20 09:52:00,20.0,17.0,-100.00,ESE,110,1.0,2.0,89,-99.99,,,-99.99,,2013-01-20 17:52:00,
2013-01-20 10:02:00,20.0,17.0,-100.00,ESE,110,1.0,2.0,89,-99.99,,,-99.99,,2013-01-20 18:02:00,
2013-01-20 10:23:00,22.0,19.0,-100.00,SE,125,1.0,1.0,89,-99.99,,,-99.99,,2013-01-20 18:23:00,
2013-01-20 10:33:00,25.0,22.0,-100.00,SE,130,1.0,2.0,90,-99.99,,,-99.99,,2013-01-20 18:33:00,
2013-01-20 10:42:00,25.0,22.0,-100.00,SE,130,1.0,2.0,90,-99.99,,,-99.99,,2013-01-20 18:42:00,
2013-01-20 10:52:00,27.0,24.0,-100.00,SE,130,1.0,1.0,90,-99.99,,,-99.99,,2013-01-20 18:52:00,
2013-01-20 11:02:00,27.0,24.0,-100.00,SE,130,1.0,1.0,90,-99.99,,,-99.99,,2013-01-20 19:02:00,
2013-01-20 11:12:00,28.0,26.0,-100.00,SE,130,1.0,1.0,90,-99.99,,,-99.99,,2013-01-20 19:12:00,
2013-01-20 11:22:00,31.0,28.0,-100.00,SE,130,1.0,1.0,89,-99.99,,,-99.99,,2013-01-20 19:22:00,
2013-01-20 11:33:00,32.0,27.0,-100.00,SE,125,1.0,1.0,82,-99.99,,,-99.99,,2013-01-20 19:33:00,
2013-01-20 11:42:00,32.0,27.0,-100.00,SE,125,1.0,1.0,82,-99.99,,,-99.99,,2013-01-20 19:42:00,
2013-01-20 11:52:00,33.0,26.0,-100.00,SE,135,1.0,2.0,74,-99.99,,,-99.99,,2013-01-20 19:52:00,
2013-01-20 12:02:00,33.0,26.0,-100.00,SE,135,1.0,2.0,74,-99.99,,,-99.99,,2013-01-20 20:02:00,
2013-01-20 12:12:00,36.0,26.0,-100.00,South,170,1.0,2.0,68,-99.99,,,-99.99,,2013-01-20 20:12:00,
2013-01-20 12:22:00,38.0,25.0,-100.00,SSE,150,2.0,2.0,59,-99.99,,,-99.99,,2013-01-20 20:22:00,
2013-01-20 12:33:00,38.0,25.0,-100.00,SSE,150,2.0,2.0,59,-99.99,,,-99.99,,2013-01-20 20:33:00,
2013-01-20 12:42:00,38.0,25.0,-100.00,SSE,150,2.0,2.0,59,-99.99,,,-99.99,,2013-01-20 20:42:00,
2013-01-20 12:52:00,39.0,24.0,-100.00,SSW,195,1.0,4.0,54,-99.99,,,-99.99,,2013-01-20 20:52:00,
2013-01-20 13:03:00,39.0,24.0,-100.00,SSW,195,1.0,4.0,54,-99.99,,,-99.99,,2013-01-20 21:03:00,
2013-01-20 13:12:00,40.0,24.0,-100.00,SSE,150,0.0,2.0,52,-99.99,,,-99.99,,2013-01-20 21:12:00,
2013-01-20 13:22:00,40.0,23.0,-100.00,South,175,0.0,2.0,50,-99.99,,,-99.99,,2013-01-20 21:22:00,
2013-01-20 13:33:00,41.0,23.0,-100.00,SE,145,0.0,2.0,49,-99.99,,,-99.99,,2013-01-20 21:33:00,
2013-01-20 13:52:00,42.0,24.0,-100.00,South,175,0.0,2.0,49,-99.99,,,-99.99,,2013-01-20 21:52:00,
2013-01-20 14:02:00,42.0,24.0,-100.00,South,175,0.0,2.0,49,-99.99,,,-99.99,,2013-01-20 22:02:00,
2013-01-20 14:12:00,42.0,23.0,-100.00,SE,135,0.0,2.0,48,-99.99,,,-99.99,,2013-01-20 22:12:00,
2013-01-20 14:22:00,41.0,23.0,-100.00,South,180,1.0,1.0,49,-99.99,,,-99.99,,2013-01-20 22:22:00,
2013-01-20 14:33:00,40.0,23.0,-100.00,SSE,150,1.0,2.0,50,-99.99,,,-99.99,,2013-01-20 22:33:00,
2013-01-20 14:52:00,40.0,23.0,-100.00,SE,140,1.0,2.0,51,-99.99,,,-99.99,,2013-01-20 22:52:00,
2013-01-20 15:02:00,40.0,23.0,-100.00,SE,140,1.0,2.0,51,-99.99,,,-99.99,,2013-01-20 23:02:00,
2013-01-20 15:12:00,38.0,24.0,-100.00,SE,135,2.0,3.0,56,-99.99,,,-99.99,,2013-01-20 23:12:00,
2013-01-20 15:22:00,36.0,24.0,-100.00,SE,135,3.0,4.0,61,-99.99,,,-99.99,,2013-01-20 23:22:00,
2013-01-20 15:33:00,36.0,25.0,-100.00,SE,130,3.0,4.0,65,-99.99,,,-99.99,,2013-01-20 23:33:00,
2013-01-20 15:52:00,36.0,26.0,-100.00,SE,130,4.0,5.0,68,-99.99,,,-99.99,,2013-01-20 23:52:00,
2013-01-20 16:02:00,36.0,26.0,-100.00,SE,130,4.0,5.0,68,-99.99,,,-99.99,,2013-01-21 00:02:00,
2013-01-20 16:13:00,35.0,27.0,-100.00,SE,130,4.0,5.0,71,-99.99,,,-99.99,,2013-01-21 00:13:00,
2013-01-20 16:22:00,35.0,27.0,-100.00,SE,130,2.0,5.0,73,-99.99,,,-99.99,,2013-01-21 00:22:00,
2013-01-20 16:33:00,33.0,26.0,-100.00,SE,125,2.0,4.0,75,-99.99,,,-99.99,,2013-01-21 00:33:00,
2013-01-20 16:53:00,32.0,26.0,-100.00,ENE,60,0.0,4.0,77,-99.99,,,-99.99,,2013-01-21 00:53:00,
2013-01-20 17:02:00,32.0,26.0,-100.00,ENE,60,0.0,4.0,77,-99.99,,,-99.99,,2013-01-21 01:02:00,
2013-01-20 17:12:00,32.0,26.0,-100.00,East,95,0.0,4.0,79,-99.99,,,-99.99,,2013-01-21 01:12:00,
2013-01-20 17:22:00,32.0,27.0,-100.00,SE,125,2.0,4.0,80,-99.99,,,-99.99,,2013-01-21 01:22:00,
2013-01-20 17:32:00,31.0,26.0,-100.00,ENE,70,0.0,3.0,81,-99.99,,,-99.99,,2013-01-21 01:32:00,
2013-01-20 17:52:00,31.0,26.0,-100.00,ESE,115,1.0,2.0,82,-99.99,,,-99.99,,2013-01-21 01:52:00,
2013-01-20 18:02:00,31.0,26.0,-100.00,ESE,115,1.0,2.0,82,-99.99,,,-99.99,,2013-01-21 02:02:00,
2013-01-20 18:12:00,30.0,26.0,-100.00,East,100,0.0,4.0,83,-99.99,,,-99.99,,2013-01-21 02:12:00,
2013-01-20 18:22:00,30.0,26.0,-100.00,East,80,0.0,3.0,84,-99.99,,,-99.99,,2013-01-21 02:22:00,
2013-01-20 18:33:00,29.0,25.0,-100.00,SE,125,2.0,4.0,85,-99.99,,,-99.99,,2013-01-21 02:33:00,
2013-01-20 18:52:00,29.0,25.0,-100.00,East,95,1.0,2.0,86,-99.99,,,-99.99,,2013-01-21 02:52:00,
2013-01-20 19:02:00,29.0,25.0,-100.00,East,95,1.0,2.0,86,-99.99,,,-99.99,,2013-01-21 03:02:00,
2013-01-20 19:12:00,29.0,25.0,-100.00,East,90,1.0,4.0,86,-99.99,,,-99.99,,2013-01-21 03:12:00,
2013-01-20 19:23:00,28.0,25.0,-100.00,ENE,70,0.0,2.0,87,-99.99,,,-99.99,,2013-01-21 03:23:00,
2013-01-20 19:33:00,28.0,25.0,-100.00,SE,130,0.0,2.0,87,-99.99,,,-99.99,,2013-01-21 03:33:00,
2013-01-20 19:52:00,28.0,25.0,-100.00,NE,55,0.0,2.0,88,-99.99,,,-99.99,,2013-01-21 03:52:00,
2013-01-20 20:02:00,28.0,25.0,-100.00,NE,55,0.0,2.0,88,-99.99,,,-99.99,,2013-01-21 04:02:00,
2013-01-20 20:12:00,27.0,25.0,-100.00,ESE,120,1.0,3.0,89,-99.99,,,-99.99,,2013-01-21 04:12:00,
2013-01-20 20:22:00,27.0,24.0,-100.00,ENE,65,0.0,1.0,89,-99.99,,,-99.99,,2013-01-21 04:22:00,
2013-01-20 20:32:00,27.0,24.0,-100.00,East,95,1.0,2.0,89,-99.99,,,-99.99,,2013-01-21 04:32:00,
2013-01-20 20:52:00,27.0,24.0,-100.00,ENE,60,1.0,3.0,90,-99.99,,,-99.99,,2013-01-21 04:52:00,
2013-01-20 21:03:00,27.0,24.0,-100.00,ENE,60,1.0,3.0,90,-99.99,,,-99.99,,2013-01-21 05:03:00,
2013-01-20 21:12:00,26.0,24.0,-100.00,ESE,110,0.0,4.0,90,-99.99,,,-99.99,,2013-01-21 05:12:00,
2013-01-20 21:22:00,26.0,24.0,-100.00,East,85,1.0,2.0,90,-99.99,,,-99.99,,2013-01-21 05:22:00,
2013-01-20 21:33:00,26.0,23.0,-100.00,ENE,75,0.0,2.0,90,-99.99,,,-99.99,,2013-01-21 05:33:00,
2013-01-20 21:52:00,26.0,23.0,-100.00,East,90,0.0,2.0,90,-99.99,,,-99.99,,2013-01-21 05:52:00,
2013-01-20 22:02:00,26.0,23.0,-100.00,East,90,0.0,2.0,90,-99.99,,,-99.99,,2013-01-21 06:02:00,
2013-01-20 22:12:00,26.0,23.0,-100.00,ESE,105,0.0,2.0,90,-99.99,,,-99.99,,2013-01-21 06:12:00,
2013-01-20 22:23:00,25.0,23.0,-100.00,NE,35,0.0,2.0,91,-99.99,,,-99.99,,2013-01-21 06:23:00,
2013-01-20 22:32:00,25.0,23.0,-100.00,East,100,1.0,2.0,91,-99.99,,,-99.99,,2013-01-21 06:32:00,
2013-01-20 22:52:00,25.0,23.0,-100.00,ESE,105,0.0,2.0,91,-99.99,,,-99.99,,2013-01-21 06:52:00,
2013-01-20 23:02:00,25.0,23.0,-100.00,ESE,105,0.0,2.0,91,-99.99,,,-99.99,,2013-01-21 07:02:00,
2013-01-20 23:22:00,24.0,22.0,-100.00,ESE,115,0.0,1.0,91,-99.99,,,-99.99,,2013-01-21 07:22:00,
2013-01-20 23:33:00,24.0,22.0,-100.00,SE,130,0.0,2.0,91,-99.99,,,-99.99,,2013-01-21 07:33:00,
2013-01-20 23:52:00,24.0,22.0,-100.00,SE,130,0.0,1.0,91,-99.99,,,-99.99,,2013-01-21 07:52:00,